Location: ??????????
(48.4699°N, 37.9573°E)
Time: 02:59:24
(UTC+00:00)

Cosmos 2228 - Pass Details

Date: 20 January 2021
Orbit: 589 x 617 km, 82.5° (Epoch: 24 February)

Event Time Altitude Azimuth Distance (km) Brightness Sun altitude
Rises 15:25:10 0° 347° (NNW) 2,839 6.4 -12.5°
Reaches altitude 10° 15:27:23 10° 343° (NNW) 1,935 5.6 -12.9°
Maximum altitude 15:31:35 58° 265° (W) 699 3.7 -13.6°
Drops below altitude 10° 15:35:46 10° 186° (S) 1,931 5.9 -14.2°
Sets 15:37:59 0° 183° (S) 2,833 6.7 -14.6°
